Hourly Weather Luis Gil Perez

Today, 15 May, Saturday

Time Temperature Precipitation Wind Pressure Humidity
00:00 +27°C° 1.1 mm 1 mps 760 mmHg 85%
01:00 +27°C° 0.1 mm 1 mps 759 mmHg 85%
02:00 +25°C° 0.1 mm 0 mps 759 mmHg 85%
03:00 +25°C° 0.1 mm 0 mps 759 mmHg 85%
04:00 +24°C° 0 mm 0 mps 759 mmHg 85%
05:00 +24°C° 0 mm 0 mps 759 mmHg 86%
06:00 +24°C° 0 mm 0 mps 759 mmHg 86%
07:00 +26°C° 0 mm 0 mps 759 mmHg 80%
08:00 +29°C° 0 mm 1 mps 759 mmHg 74%
09:00 +30°C° 0 mm 1 mps 760 mmHg 67%
10:00 +32°C° 0 mm 1 mps 759 mmHg 61%
11:00 +34°C° 0 mm 2 mps 759 mmHg 55%
12:00 +35°C° 0 mm 2 mps 758 mmHg 49%
13:00 +35°C° 0 mm 2 mps 758 mmHg 49%
14:00 +36°C° 0 mm 2 mps 757 mmHg 48%
15:00 +36°C° 0 mm 2 mps 756 mmHg 48%
16:00 +34°C° 0 mm 3 mps 757 mmHg 54%
17:00 +33°C° 0 mm 3 mps 757 mmHg 60%
18:00 +31°C° 0 mm 3 mps 757 mmHg 67%
19:00 +30°C° 0 mm 2 mps 757 mmHg 70%
20:00 +29°C° 0 mm 2 mps 757 mmHg 74%
21:00 +28°C° 0 mm 1 mps 758 mmHg 78%
22:00 +28°C° 0 mm 1 mps 758 mmHg 79%
23:00 +28°C° 0 mm 1 mps 758 mmHg 80%

Tomorrow, 16 May, Sunday

Time Temperature Precipitation Wind Pressure Humidity
00:00 +25°C° 0 mm 0 mps 758 mmHg 81%
01:00 +27°C° 0 mm 1 mps 757 mmHg 82%
02:00 +27°C° 0 mm 1 mps 757 mmHg 83%
03:00 +27°C° 0 mm 1 mps 757 mmHg 84%
04:00 +26°C° 0 mm 1 mps 757 mmHg 85%
05:00 +26°C° 0 mm 1 mps 758 mmHg 86%
06:00 +26°C° 0 mm 1 mps 758 mmHg 87%
07:00 +28°C° 0 mm 1 mps 758 mmHg 80%
08:00 +29°C° 0 mm 1 mps 758 mmHg 74%
09:00 +31°C° 0 mm 1 mps 759 mmHg 67%
10:00 +32°C° 0 mm 1 mps 758 mmHg 61%
11:00 +34°C° 0 mm 1 mps 758 mmHg 55%
12:00 +35°C° 0 mm 1 mps 757 mmHg 49%
13:00 +37°C° 0 mm 2 mps 756 mmHg 46%
14:00 +38°C° 0 mm 3 mps 756 mmHg 43%
15:00 +38°C° 0 mm 3 mps 755 mmHg 39%
16:00 +37°C° 0 mm 3 mps 755 mmHg 41%
17:00 +37°C° 0 mm 3 mps 755 mmHg 44%
18:00 +36°C° 0 mm 3 mps 755 mmHg 46%
19:00 +34°C° 0 mm 2 mps 755 mmHg 51%
20:00 +32°C° 0 mm 2 mps 756 mmHg 56%
21:00 +30°C° 0 mm 2 mps 756 mmHg 61%
22:00 +30°C° 0 mm 1 mps 756 mmHg 62%
23:00 +30°C° 0 mm 1 mps 756 mmHg 63%

Day after tomorrow, 17 May, Monday

Time Temperature Precipitation Wind Pressure Humidity
00:00 +29°C° 0 mm 1 mps 756 mmHg 64%
01:00 +29°C° 0 mm 1 mps 756 mmHg 67%
02:00 +29°C° 0 mm 1 mps 756 mmHg 69%
03:00 +28°C° 0 mm 1 mps 756 mmHg 72%
04:00 +28°C° 0 mm 1 mps 756 mmHg 73%
05:00 +28°C° 0 mm 1 mps 756 mmHg 74%
06:00 +26°C° 0 mm 0 mps 756 mmHg 75%
07:00 +29°C° 0 mm 1 mps 756 mmHg 68%
08:00 +31°C° 0 mm 1 mps 757 mmHg 62%
09:00 +32°C° 0 mm 1 mps 757 mmHg 56%
10:00 +35°C° 0 mm 2 mps 757 mmHg 51%
11:00 +36°C° 0 mm 2 mps 756 mmHg 46%
12:00 +37°C° 0 mm 2 mps 756 mmHg 41%
13:00 +38°C° 0 mm 2 mps 755 mmHg 39%
14:00 +39°C° 0 mm 2 mps 755 mmHg 37%
15:00 +40°C° 0 mm 2 mps 754 mmHg 35%
16:00 +39°C° 0 mm 2 mps 754 mmHg 38%
17:00 +38°C° 0 mm 3 mps 754 mmHg 42%
18:00 +37°C° 0 mm 3 mps 754 mmHg 45%
19:00 +35°C° 0 mm 3 mps 754 mmHg 49%
20:00 +34°C° 0 mm 2 mps 755 mmHg 53%
21:00 +32°C° 0 mm 2 mps 755 mmHg 58%
22:00 +31°C° 0.1 mm 2 mps 755 mmHg 60%
23:00 +30°C° 0.1 mm 2 mps 756 mmHg 62%

18 May, Tuesday

Time Temperature Precipitation Wind Pressure Humidity
00:00 +30°C° 0.1 mm 2 mps 756 mmHg 64%
01:00 +29°C° 0 mm 2 mps 756 mmHg 67%
02:00 +29°C° 0 mm 2 mps 755 mmHg 69%
03:00 +28°C° 0 mm 2 mps 755 mmHg 71%
04:00 +28°C° 0 mm 1 mps 755 mmHg 73%
05:00 +28°C° 0 mm 1 mps 755 mmHg 75%
06:00 +28°C° 0 mm 1 mps 755 mmHg 78%
07:00 +30°C° 0 mm 1 mps 755 mmHg 70%
08:00 +32°C° 0 mm 1 mps 756 mmHg 63%
09:00 +33°C° 0 mm 1 mps 756 mmHg 55%
10:00 +35°C° 0 mm 1 mps 755 mmHg 49%
11:00 +37°C° 0 mm 1 mps 755 mmHg 43%
12:00 +40°C° 0 mm 1 mps 754 mmHg 37%
13:00 +40°C° 0 mm 1 mps 754 mmHg 35%
14:00 +41°C° 0 mm 1 mps 753 mmHg 33%
15:00 +41°C° 0 mm 1 mps 752 mmHg 31%
16:00 +40°C° 0 mm 2 mps 752 mmHg 37%
17:00 +38°C° 0 mm 2 mps 752 mmHg 42%
18:00 +36°C° 0 mm 3 mps 752 mmHg 48%
19:00 +35°C° 0.4 mm 3 mps 753 mmHg 56%
20:00 +33°C° 0.4 mm 3 mps 754 mmHg 65%
21:00 +30°C° 0.4 mm 3 mps 755 mmHg 73%
22:00 +29°C° 0.1 mm 3 mps 755 mmHg 76%
23:00 +29°C° 0.1 mm 3 mps 755 mmHg 78%

19 May, Wednesday

Time Temperature Precipitation Wind Pressure Humidity
00:00 +28°C° 0.1 mm 2 mps 755 mmHg 80%
01:00 +27°C° 0 mm 2 mps 755 mmHg 81%
02:00 +27°C° 0 mm 2 mps 754 mmHg 81%
03:00 +26°C° 0 mm 2 mps 754 mmHg 81%
04:00 +26°C° 0 mm 2 mps 754 mmHg 80%
05:00 +26°C° 0 mm 1 mps 754 mmHg 80%
06:00 +24°C° 0 mm 0 mps 754 mmHg 79%
07:00 +28°C° 0 mm 1 mps 755 mmHg 71%
08:00 +30°C° 0 mm 1 mps 755 mmHg 62%
09:00 +32°C° 0 mm 2 mps 755 mmHg 54%
10:00 +34°C° 0 mm 1 mps 755 mmHg 48%
11:00 +37°C° 0 mm 1 mps 754 mmHg 42%
12:00 +37°C° 0 mm 0 mps 754 mmHg 36%
13:00 +40°C° 0 mm 1 mps 753 mmHg 34%
14:00 +41°C° 0 mm 1 mps 752 mmHg 31%
15:00 +42°C° 0 mm 1 mps 752 mmHg 29%
16:00 +41°C° 0 mm 1 mps 752 mmHg 32%
17:00 +40°C° 0 mm 2 mps 752 mmHg 35%
18:00 +38°C° 0 mm 2 mps 751 mmHg 38%
19:00 +36°C° 0 mm 2 mps 752 mmHg 45%
20:00 +34°C° 0 mm 2 mps 753 mmHg 52%
21:00 +31°C° 0 mm 2 mps 754 mmHg 59%
22:00 +30°C° 0.4 mm 2 mps 754 mmHg 64%
23:00 +30°C° 0.4 mm 1 mps 754 mmHg 69%

20 May, Thursday

Time Temperature Precipitation Wind Pressure Humidity
00:00 +29°C° 0.4 mm 1 mps 755 mmHg 74%
01:00 +28°C° 0 mm 1 mps 755 mmHg 76%
02:00 +28°C° 0 mm 1 mps 754 mmHg 77%
03:00 +28°C° 0 mm 1 mps 754 mmHg 79%
04:00 +27°C° 0 mm 1 mps 755 mmHg 80%
05:00 +27°C° 0 mm 1 mps 755 mmHg 81%
06:00 +27°C° 0 mm 1 mps 755 mmHg 82%
07:00 +29°C° 0 mm 1 mps 755 mmHg 74%
08:00 +31°C° 0 mm 1 mps 756 mmHg 65%
09:00 +33°C° 0 mm 1 mps 756 mmHg 56%
10:00 +35°C° 0 mm 1 mps 755 mmHg 50%
11:00 +37°C° 0 mm 1 mps 755 mmHg 43%
12:00 +37°C° 0 mm 0 mps 754 mmHg 37%
13:00 +41°C° 0 mm 1 mps 754 mmHg 34%
14:00 +41°C° 0 mm 1 mps 753 mmHg 32%
15:00 +42°C° 0 mm 1 mps 752 mmHg 29%
16:00 +40°C° 0 mm 3 mps 752 mmHg 37%
17:00 +38°C° 0 mm 4 mps 752 mmHg 44%
18:00 +36°C° 0 mm 6 mps 752 mmHg 51%
19:00 +34°C° 0 mm 5 mps 753 mmHg 57%
20:00 +33°C° 0 mm 4 mps 754 mmHg 63%
21:00 +32°C° 0 mm 4 mps 755 mmHg 69%
22:00 +30°C° 0.3 mm 4 mps 755 mmHg 71%
23:00 +29°C° 0.3 mm 4 mps 755 mmHg 73%
Show more

We Need Your Consent

Meteoprog and our Service Providers may store and access personal data such as cookies, device identifiers or other similar technologies on your device and process such data to personalise content and ads, as well as provide social media features and to analyse the traffic.

  • Store and/or access information on your device

    Cookies, device identifiers or other information can be stored or accessed on your device for the purposes indicated above.

  • Personalised ads and content, ad and content measurement, audience insights, and products development

    Ads and content can be personalised based on a profile. More data can be added to better personalise ads and content. Ad and content performance can be measured. Insights about the audience who saw the ads and content can be derived. Such data can be used to develop or improve user’s experience, systems and software.

By clicking ‘I Agree’ you will allow the use of indicated cookies, device identifiers, web beacons or other similar technologies. Your settings can be changed in the browser on your device.

For certain purposes, legitimate interests may be relied on, rather than consent. You can read more about this in our Privacy and Cookie Policy.